This is the latest recevied weather packets stored in our database for station/object W1BKW. If no packets are shown the sender has not sent any weather packets the latest 10 day(s).
| Time | Temp. | Humidity | Pressure | Rain* | Wind** | Luminosity | Snow |
|---|---|---|---|---|---|---|---|
| 1777623253 | 6.67° C | 88% | 1004.9 hPa | 0 mm | - | 0 W/m² | - |
| 1777622348 | 7.22° C | 90% | 1005.1 hPa | 0 mm | - | 0 W/m² | - |
| 1777621448 | 7.22° C | 90% | 1005 hPa | 0 mm | - | 0 W/m² | - |
| 1777620547 | 7.22° C | 91% | 1005.1 hPa | 0 mm | - | 0 W/m² | - |
| 1777619642 | 6.67° C | 95% | 1004.9 hPa | 0 mm | - | 0 W/m² | - |
| 1777618739 | 7.22° C | 92% | 1005.1 hPa | 0 mm | - | 0 W/m² | - |
| 1777617839 | 7.22° C | 92% | 1005.1 hPa | 0 mm | - | 0 W/m² | - |
| 1777616939 | 7.22° C | 94% | 1005 hPa | 0 mm | - | 0 W/m² | - |
| 1777616038 | 7.22° C | 93% | 1005.1 hPa | 0 mm | - | 0 W/m² | - |
| 1777615136 | 7.22° C | 93% | 1004.9 hPa | 0 mm | - | 0 W/m² | - |
| 1777614236 | 7.22° C | 94% | 1005.3 hPa | 0 mm | - | 0 W/m² | - |
| 1777613331 | 7.22° C | 93% | 1005.2 hPa | 0 mm | - | 0 W/m² | - |
| 1777612431 | 7.22° C | 93% | 1005.1 hPa | 0 mm | - | 0 W/m² | - |
| 1777611531 | 7.78° C | 96% | 1004.9 hPa | 0 mm | - | 0 W/m² | - |
| 1777610631 | 7.78° C | 97% | 1005.1 hPa | 0 mm | - | 0 W/m² | - |
| 1777609729 | 7.78° C | 98% | 1005 hPa | 0 mm | - | 0 W/m² | - |
| 1777608827 | 7.78° C | 96% | 1005 hPa | 0 mm | - | 0 W/m² | - |
| 1777607924 | 7.78° C | 98% | 1004.9 hPa | 0 mm | - | 0 W/m² | - |
| 1777607024 | 7.78° C | 99% | 1004.7 hPa | 0 mm | - | 0 W/m² | - |
| 1777606122 | 7.78° C | 99% | 1004.9 hPa | 0 mm | - | 0 W/m² | - |
| 1777605220 | 7.78° C | 99% | 1005 hPa | 0 mm | - | 0 W/m² | - |
| 1777604321 | 7.78° C | 99% | 1005.1 hPa | 0 mm | - | 0 W/m² | - |
| 1777603421 | 7.22° C | 99% | 1005.3 hPa | 0 mm | - | 0 W/m² | - |
| 1777602518 | 6.67° C | 99% | 1005.3 hPa | 0 mm | - | 0 W/m² | - |
| 1777601617 | 6.67° C | 99% | 1005.3 hPa | 0 mm | - | 0 W/m² | - |
* Rain latest hour (hover to see other rain measurements)
** Current wind speed in m/s (hover to see current wind gust speed)